Location: ??
(35.4824°N, 139.4679°E)
Time: 20:52:45
(UTC+00:00)

Hubble Space Telescope - Visible Passes

Search period start: 18 January 2021 00:00
Search period end: 28 January 2021 00:00
Orbit: 536 x 539 km, 28.5° (Epoch: 17 January)

Date Brightness Start Highest point End Pass type
(mag) Time Alt. Az. Time Alt. Az. Time Alt. Az.
18 Jan 2.9 08:51:40 10° SSW 08:54:18 16° SSE 08:56:55 10° ESE visible
18 Jan 3.4 10:31:22 10° SW 10:32:27 16° SW 10:32:27 16° SW visible
19 Jan 2.8 08:40:25 10° SSW 08:43:23 19° SSE 08:46:20 10° ESE visible
19 Jan 2.9 10:20:25 10° WSW 10:22:17 21° SW 10:22:17 21° SW visible
20 Jan 2.6 08:29:16 10° SW 08:32:27 22° SSE 08:35:39 10° ESE visible
20 Jan 2.5 10:09:31 10° WSW 10:12:08 27° SSW 10:12:08 27° SSW visible
21 Jan 2.2 09:58:38 10° WSW 10:01:59 30° S 10:01:59 30° S visible
22 Jan 2.1 09:47:46 10° WSW 09:51:24 30° S 09:51:52 29° S visible
23 Jan 2.3 09:36:56 10° WSW 09:40:30 28° S 09:41:48 24° SSE visible
24 Jan 2.4 09:26:07 10° WSW 09:29:36 26° S 09:31:47 17° SE visible
25 Jan 2.6 09:15:20 10° WSW 09:18:42 24° S 09:21:50 11° SE visible
26 Jan 2.9 09:04:35 10° WSW 09:07:47 22° SSW 09:10:59 10° SE visible
27 Jan 3.1 08:53:54 10° WSW 08:56:52 19° SSW 08:59:50 10° SSE visible
